Location: Unspecified
(47.7670°N, 8.8522°E)
Time: 20:37:00
(UTC+01:00)

ISS - Pass Details

Date: 27 January 2019
Orbit: 403 x 411 km, 51.6° (Epoch: 18 February)

Event Time Altitude Azimuth Distance (km) Brightness Sun altitude
Rises 19:57:29 0° 272° (W) 2,335 1.4 -26.9°
Reaches altitude 10° 19:59:38 10° 280° (W) 1,476 0.0 -27.2°
Enters shadow 20:00:55 20° 291° (WNW) 1,003 -1.2 -27.4°
